This demonstration page uses our WeatherBlox Daily Observations layout. Learn more.

Left ArrowRight Arrow

53.62937, 11.41316

Hourly Observations for January 19, 2016

Temp ( °F °C ) Dew Point ( °F °C ) Humidity (%) Winds ( mph kmh ) Pressure ( in mb ) Visibility ( mi km ) Precip ( " mm )
5:20 am 05:20 Mostly Clear 16 -9 14 -10 93 93 SE 2 4 30.00 1016 4 7 N/A
5:50 am 05:50 Mostly Clear 16 -9 14 -10 93 93 VRB 1 2 30.00 1016 5 8 N/A
6:20 am 06:20 Mostly Clear 16 -9 14 -10 93 93 VRB 1 2 30.00 1016 7 11 N/A
6:50 am 06:50 Mostly Clear 16 -9 14 -10 93 93 VRB 1 2 29.97 1015 7 11 N/A
7:20 am 07:20 Mostly Clear 10 -12 7 -14 85 85 VRB 1 2 29.97 1015 7 11 N/A
7:50 am 07:50 Mostly Clear 14 -10 12 -11 92 92 VRB 1 2 29.97 1015 7 11 N/A
8:20 am 08:20 Mostly Sunny 18 -8 16 -9 93 93 S 3 6 29.97 1015 7 11 N/A
8:50 am 08:50 Mostly Sunny 19 -7 16 -9 86 86 S 8 13 29.97 1015 7 11 N/A
9:20 am 09:20 Mostly Sunny 19 -7 16 -9 86 86 SSW 10 17 29.97 1015 7 11 N/A
9:50 am 09:50 Mostly Sunny 21 -6 16 -9 80 80 S 10 17 29.97 1015 7 11 N/A
10:20 am 10:20 Mostly Sunny 21 -6 16 -9 80 80 SSW 9 15 29.97 1015 7 11 N/A
10:50 am 10:50 Mostly Sunny 21 -6 16 -9 80 80 SW 10 17 29.97 1015 7 11 N/A
11:20 am 11:20 Mostly Sunny 21 -6 16 -9 80 80 SSW 9 15 29.94 1014 7 11 N/A
11:50 am 11:50 Mostly Sunny 23 -5 16 -9 74 74 SSW 10 17 29.94 1014 7 11 N/A
12:20 pm 12:20 Mostly Sunny 23 -5 18 -8 80 80 SSW 9 15 29.94 1014 7 11 N/A
12:50 pm 12:50 Mostly Sunny 23 -5 18 -8 80 80 SSW 9 15 29.94 1014 7 11 N/A
1:20 pm 13:20 Mostly Sunny 25 -4 19 -7 80 80 SW 10 17 29.91 1013 7 11 N/A
1:50 pm 13:50 Mostly Sunny 25 -4 19 -7 80 80 SSW 9 15 29.91 1013 7 11 N/A
2:20 pm 14:20 Mostly Sunny 25 -4 19 -7 80 80 SSW 9 15 29.91 1013 7 11 N/A
2:50 pm 14:50 Mostly Sunny 25 -4 19 -7 80 80 SSW 7 11 29.88 1012 7 11 N/A
3:20 pm 15:20 Mostly Sunny 25 -4 19 -7 80 80 SSW 8 13 29.88 1012 7 11 N/A
3:50 pm 15:50 Mostly Sunny 25 -4 19 -7 80 80 S 9 15 29.88 1012 7 11 N/A
4:20 pm 16:20 Mostly Cloudy 25 -4 19 -7 80 80 S 9 15 29.88 1012 30 48 N/A
4:50 pm 16:50 Mostly Cloudy 27 -3 19 -7 74 74 SSW 9 15 29.88 1012 30 48 N/A
5:20 pm 17:20 Mostly Cloudy 25 -4 21 -6 86 86 SSW 12 19 29.88 1012 30 48 N/A
5:50 pm 17:50 Mostly Cloudy with Light Snow 25 -4 23 -5 93 93 SW 12 19 29.88 1012 1 1 N/A

Powered by AerisWeather